Content
SEND FEEDBACK

Daily
Averages
Monthly
Summary
United States of America

BRUNDIDGE, ALABAMA


Home > North America > United States > Alabama
Elevation: 52 feet     Latitude: 31 43N     Longitude: 085 49W

WEATHER
 
SELECT A DAY
Number of Records: 178,120;   Date Range: 1/3/95 - 7/26/14
 
SHARE

PRINT THIS DATA

[ ← Previous Day ]
WEATHER ALMANAC - FEBRUARY 13, 2013
[ Next Day → ]
[ °C ]   °F
Weather ElementAverageHighLow
Temperature50.3 °F55.9 °F (4:53 am)39.9 °F (11:53 pm)
Dewpoint47.1 °F55.4 °F (4:31 am)37.9 °F (11:53 pm)
Humidity89.2 %100 % (1:19 am)72 % (10:43 am)
Barometer29.89 in30.05 in (11:53 pm)29.77 in (2:53 am)
Wind Speed6.5 mph19.6 mph (1:23 pm)
Wind Gust24.2 mph (1:23 pm)
Weather ElementAverage
Visibility6 mi
Wind DirectionSW (223.9 °)

Weather ElementTotal
Precipitation0.72 in
Heating Degree Days17.1 (Base 65)
Averaged from 56 records on February 13, 2013
WEATHER CONDITIONS BREAKOUT
WIND DIRECTION BREAKOUT
WEATHER BY HOUR - FEBRUARY 13, 2013
[ °C ]   °F
Local TimeTemperatureDewpointHumidityBarometerVisibilityWind DirectionWind SpeedGust SpeedPrecipitationEventsConditions
12:53 AM52.0 °F50.0 °F93 %29.79 in3.0 miEast (100°)3.5 mph0.01 inOvercast
1:19 AM51.8 °F51.8 °F100 %29.79 in2.5 miCalmOvercast
1:30 AM51.8 °F51.8 °F100 %29.79 in1.5 miCalmOvercast
1:37 AM51.8 °F51.8 °F100 %29.78 in1.0 miCalmOvercast
1:45 AM51.8 °F51.8 °F100 %29.79 in0.8 miCalmOvercast
1:53 AM52.0 °F51.1 °F97 %29.79 in0.5 miCalmFogFog
2:53 AM53.1 °F52.0 °F96 %29.77 in0.2 miCalmFogFog
3:35 AM53.6 °F51.8 °F94 %29.77 in0.2 miSSW (210°)3.5 mphFogFog
3:53 AM53.1 °F52.0 °F96 %29.78 in0.2 miWSW (250°)3.5 mphFogFog
4:27 AM55.4 °F53.6 °F94 %29.81 in1.0 miWSW (240°)8.1 mphOvercast
4:31 AM55.4 °F55.4 °F100 %29.81 in1.5 miWSW (240°)10.4 mph18.4 mphOvercast
4:34 AM55.4 °F55.4 °F100 %29.81 in2.0 miSW (230°)9.2 mph18.4 mphOvercast
4:46 AM55.4 °F55.4 °F100 %29.82 in3.0 miWSW (250°)8.1 mphOvercast
4:53 AM55.9 °F55.0 °F97 %29.82 in4.0 miWest (260°)10.4 mphOvercast
5:20 AM55.4 °F53.6 °F94 %29.83 in10.0 miWSW (250°)8.1 mph19.6 mphMostly Cloudy
5:28 AM53.6 °F53.6 °F100 %29.83 in10.0 miWSW (250°)4.6 mphScattered Clouds
5:53 AM54.0 °F52.0 °F93 %29.83 in10.0 miWSW (240°)5.8 mphPartly Cloudy
6:53 AM53.1 °F50.0 °F89 %29.86 in9.0 miWSW (240°)5.8 mphScattered Clouds
7:53 AM54.0 °F51.1 °F90 %29.87 in9.0 miSW (230°)6.9 mphMostly Cloudy
8:28 AM53.6 °F50.0 °F88 %29.91 in10.0 miWest (260°)11.5 mphMostly Cloudy
8:53 AM54.0 °F48.9 °F83 %29.90 in10.0 miWest (270°)11.5 mph16.1 mphMostly Cloudy
9:00 AM53.6 °F48.2 °F82 %29.90 in10.0 miWest (270°)11.5 mph16.1 mphScattered Clouds
9:53 AM55.0 °F48.0 °F77 %29.90 in10.0 miWest (280°)10.4 mphScattered Clouds
10:34 AM53.6 °F46.4 °F77 %29.92 in10.0 miWNW (290°)13.8 mph18.4 mphMostly Cloudy
10:43 AM55.4 °F46.4 °F72 %29.93 in10.0 miWNW (290°)11.5 mph17.3 mphScattered Clouds
10:53 AM54.0 °F46.0 °F75 %29.91 in9.0 miNW (310°)13.8 mph0.00 inRainLight Rain
11:53 AM54.0 °F46.0 °F75 %29.92 in10.0 miWNW (300°)11.5 mph16.1 mph0.00 inMostly Cloudy
12:06 PM53.6 °F46.4 °F77 %29.91 in8.0 miWNW (300°)8.1 mph0.00 inRainLight Rain
12:14 PM53.6 °F46.4 °F77 %29.90 in4.0 miWNW (290°)9.2 mph0.01 inRainLight Rain
12:37 PM51.8 °F46.4 °F82 %29.89 in4.0 miWest (270°)5.8 mph0.03 inRainLight Rain
12:51 PM50.0 °F46.4 °F87 %29.91 in3.0 miWest (280°)8.1 mph0.04 inRainLight Rain
12:53 PM50.0 °F46.0 °F86 %29.90 in3.0 miWest (280°)8.1 mph0.04 inRainLight Rain
1:06 PM48.2 °F46.4 °F93 %29.90 in2.5 miWNW (300°)6.9 mph0.01 inRainLight Rain
1:13 PM48.2 °F46.4 °F93 %29.89 in2.0 miVariable3.5 mph0.02 inRainRain
1:23 PM48.2 °F46.4 °F93 %29.91 in2.0 miWNW (300°)19.6 mph24.2 mph0.04 inRainRain
1:32 PM46.4 °F42.8 °F87 %29.92 in1.5 miWNW (300°)11.5 mph24.2 mph0.08 inRainHeavy Rain
1:40 PM46.4 °F42.8 °F87 %29.90 in1.2 miWNW (290°)8.1 mph0.12 inRainRain
1:45 PM46.4 °F42.8 °F87 %29.90 in1.5 miWNW (300°)6.9 mph0.14 inRainRain
1:53 PM46.0 °F44.1 °F93 %29.87 in1.5 miNW (310°)5.8 mph0.15 inRainRain
1:55 PM46.4 °F44.6 °F93 %29.86 in2.0 miCalm0.00 inRainLight Rain
2:03 PM46.4 °F42.8 °F87 %29.94 in3.0 miWest (280°)8.1 mph0.01 inRainLight Rain
2:38 PM46.4 °F42.8 °F87 %29.93 in10.0 miWest (270°)5.8 mph0.01 inOvercast
2:53 PM46.9 °F43.0 °F86 %29.94 in10.0 miWest (270°)8.1 mph0.01 inOvercast
3:46 PM46.4 °F44.6 °F93 %29.94 in10.0 miWNW (290°)5.8 mphOvercast
3:53 PM46.9 °F43.0 °F86 %29.94 in10.0 miWNW (290°)8.1 mphOvercast
4:33 PM46.4 °F44.6 °F93 %29.93 in10.0 miWest (280°)5.8 mphOvercast
4:53 PM46.9 °F44.1 °F90 %29.94 in10.0 miWest (270°)3.5 mphMostly Cloudy
5:53 PM46.9 °F44.1 °F90 %29.96 in10.0 miCalmClear
6:53 PM46.9 °F42.1 °F83 %29.97 in10.0 miWNW (300°)4.6 mphOvercast
7:53 PM46.0 °F41.0 °F83 %29.99 in10.0 miWNW (300°)4.6 mphPartly Cloudy
8:53 PM45.0 °F39.9 °F82 %30.00 in10.0 miWNW (300°)3.5 mphScattered Clouds
9:16 PM44.6 °F41.0 °F87 %30.00 in10.0 miNNW (330°)3.5 mphMostly Cloudy
9:30 PM44.6 °F41.0 °F87 %30.00 in10.0 miCalmScattered Clouds
9:53 PM44.1 °F39.9 °F85 %30.00 in10.0 miNNW (330°)6.9 mphClear
10:53 PM43.0 °F39.0 °F86 %30.03 in10.0 miWSW (250°)3.5 mphClear
11:53 PM39.9 °F37.9 °F93 %30.05 in8.0 miWNW (300°)5.8 mphClear
Hourly data recorded from KTOI, located miles away from Brundidge, Alabama







STORIES FROM OUR PARTNERS